TimeMST,TemperatureF,Dew PointF,Humidity,Sea Level PressureIn,VisibilityMPH,Wind Direction,Wind SpeedMPH,Gust SpeedMPH,PrecipitationIn,Events,Conditions,WindDirDegrees,DateUTC
12:15 AM,-0.4,-7.6,72,29.86,10.0,Calm,Calm,-,N/A,,Overcast,0,2013-01-13 07:15:00
12:35 AM,-0.4,-7.6,72,29.86,10.0,Calm,Calm,-,N/A,,Overcast,0,2013-01-13 07:35:00
12:55 AM,-2.2,-7.6,78,29.86,10.0,Calm,Calm,-,N/A,,Overcast,0,2013-01-13 07:55:00
1:35 AM,-0.4,-7.6,72,29.87,10.0,Calm,Calm,-,N/A,,Overcast,0,2013-01-13 08:35:00
1:55 AM,-0.4,-5.8,78,29.87,10.0,Calm,Calm,-,N/A,,Overcast,0,2013-01-13 08:55:00
2:15 AM,-0.4,-5.8,78,29.88,10.0,Calm,Calm,-,N/A,,Mostly Cloudy,0,2013-01-13 09:15:00
2:35 AM,-2.2,-7.6,78,29.88,10.0,Calm,Calm,-,N/A,,Mostly Cloudy,0,2013-01-13 09:35:00
2:55 AM,-2.2,-7.6,78,29.88,10.0,Calm,Calm,-,N/A,,Overcast,0,2013-01-13 09:55:00
3:15 AM,-4.0,-7.6,85,29.87,6.0,Calm,Calm,-,N/A,,Overcast,0,2013-01-13 10:15:00
3:55 AM,-4.0,-7.6,85,29.86,10.0,Calm,Calm,-,N/A,,Mostly Cloudy,0,2013-01-13 10:55:00
4:15 AM,-4.0,-7.6,85,29.86,7.0,Calm,Calm,-,N/A,,Mostly Cloudy,0,2013-01-13 11:15:00
4:35 AM,-4.0,-7.6,85,29.86,10.0,Calm,Calm,-,N/A,,Overcast,0,2013-01-13 11:35:00
4:55 AM,-5.8,-7.6,92,29.86,7.0,Calm,Calm,-,N/A,,Overcast,0,2013-01-13 11:55:00
5:15 AM,-4.0,-7.6,85,29.86,3.0,Calm,Calm,-,N/A,,Overcast,0,2013-01-13 12:15:00
5:35 AM,-4.0,-7.6,85,29.87,2.0,Calm,Calm,-,N/A,,Overcast,0,2013-01-13 12:35:00
5:55 AM,-2.2,-7.6,78,29.87,5.0,Calm,Calm,-,N/A,,Overcast,0,2013-01-13 12:55:00
6:15 AM,-4.0,-7.6,85,29.88,6.0,Calm,Calm,-,N/A,,Mostly Cloudy,0,2013-01-13 13:15:00
6:35 AM,-4.0,-7.6,85,29.89,3.0,Calm,Calm,-,N/A,,Overcast,0,2013-01-13 13:35:00
6:50 AM,-5.8,-7.6,92,29.89,4.0,Calm,Calm,-,N/A,Snow,Light Snow,0,2013-01-13 13:50:00
7:50 AM,-4.0,-7.6,85,29.90,2.5,Calm,Calm,-,N/A,Snow,Light Snow,0,2013-01-13 14:50:00
8:50 AM,-2.2,-5.8,85,29.91,1.0,Calm,Calm,-,N/A,Snow,Light Snow,0,2013-01-13 15:50:00
9:05 AM,-2.2,-5.8,85,29.92,2.5,Calm,Calm,-,N/A,Snow,Light Snow,0,2013-01-13 16:05:00
9:50 AM,-0.4,-5.8,78,29.91,4.0,Calm,Calm,-,N/A,Snow,Light Snow,0,2013-01-13 16:50:00
10:50 AM,1.4,-2.2,85,29.89,10.0,West,3.5,-,N/A,Snow,Light Snow,260,2013-01-13 17:50:00
11:50 AM,5.0,-2.2,72,29.85,10.0,West,4.6,-,N/A,,Overcast,260,2013-01-13 18:50:00
12:50 PM,6.8,1.4,79,29.83,10.0,Calm,Calm,-,N/A,,Mostly Cloudy,0,2013-01-13 19:50:00
1:50 PM,12.2,3.2,67,29.82,10.0,Calm,Calm,-,N/A,,Mostly Cloudy,0,2013-01-13 20:50:00
2:50 PM,10.4,1.4,67,29.83,10.0,Calm,Calm,-,N/A,,Overcast,0,2013-01-13 21:50:00
3:50 PM,12.2,5.0,73,29.84,10.0,Calm,Calm,-,N/A,,Overcast,0,2013-01-13 22:50:00
4:50 PM,12.2,6.8,79,29.86,10.0,Calm,Calm,-,N/A,,Mostly Cloudy,0,2013-01-13 23:50:00
5:50 PM,12.2,5.0,73,29.87,10.0,Calm,Calm,-,N/A,,Overcast,0,2013-01-14 00:50:00
6:50 PM,10.4,3.2,73,29.89,7.0,West,4.6,-,N/A,Rain,Freezing Rain,270,2013-01-14 01:50:00
7:59 PM,8.6,1.4,73,29.90,7.0,West,6.9,-,N/A,,Overcast,280,2013-01-14 02:59:00
8:50 PM,8.6,-0.4,67,29.90,10.0,West,8.1,-,N/A,,Overcast,280,2013-01-14 03:50:00
9:50 PM,6.8,-0.4,72,29.92,5.0,Calm,Calm,-,N/A,Snow,Light Snow,0,2013-01-14 04:50:00
10:50 PM,3.2,-2.2,78,29.93,5.0,Calm,Calm,-,N/A,Snow,Light Snow,0,2013-01-14 05:50:00
11:15 PM,-0.4,-4.0,85,29.93,10.0,South,4.6,-,N/A,,Scattered Clouds,170,2013-01-14 06:15:00
11:35 PM,-0.4,-4.0,85,29.93,10.0,Calm,Calm,-,N/A,,Mostly Cloudy,0,2013-01-14 06:35:00
11:55 PM,-2.2,-5.8,85,29.94,10.0,Calm,Calm,-,N/A,,Overcast,0,2013-01-14 06:55:00